Wind_Speed
22 23 24 24 25 25 25 24 22 21 20 20 20 20 19 18 17 19 20 21 21 22 22 22 22 22 22 22 22 22 22 21 20 20 20 20 20 20 20 20 18 17 16 14 10 7 10 12 12 12 12 11 11 12 13 12 9 7 6 5 4 3 3 3 4 6 8 10 11 12 12 12 11 11 10 9 9 9 8 8 8 7 5 4 3
21 23 24 24 25 26 25 25 24 23 22 20 19 19 18 18 16 16 18 19 20 21 21 22 21 21 21 20 21 21 21 21 20 20 20 19 19 19 20 20 19 19 19 17 15 12 7 9 13 14 13 13 13 14 15 16 15 13 11 10 8 6 5 4 4 4 6 7 9 11 12 13 13 13 13 12 11 10 10 10 9 9 8 7 7
22 22 23 24 25 25 25 25 25 24 23 22 20 19 17 16 14 14 15 17 18 18 19 19 20 20 19 19 19 19 19 20 20 20 20 20 19 19 19 19 19 20 20 19 18 16 13 8 10 14 15 14 15 16 17 17 18 18 17 16 14 12 10 8 7 6 5 5 7 8 9 11 13 14 14 14 13 13 12 12 11 10 10 10 10
21 22 22 22 23 24 25 25 25 25 24 23 22 20 19 16 15 13 14 15 16 16 15 16 17 18 18 18 18 18 17 17 18 18 18 19 19 20 20 19 19 19 19 19 19 18 17 14 9 10 15 17 16 17 18 19 19 20 20 19 18 16 15 14 12 10 8 7 7 7 7 8 9 11 13 14 14 14 14 14 13 13 12 11 11
20 21 21 22 23 24 25 26 26 26 25 24 23 22 20 19 17 16 15 15 15 15 15 15 15 16 16 17 18 18 17 17 16 15 16 16 17 18 19 19 20 19 19 18 18 18 18 17 15 10 9 16 18 18 19 20 21 21 21 21 21 20 19 18 17 16 14 12 11 10 10 10 9 10 10 12 13 14 14 14 15 15 14 14 13
21 22 22 23 24 26 27 27 27 27 26 25 24 23 22 21 20 18 17 17 16 15 15 15 15 15 15 15 16 16 17 17 16 15 14 14 15 15 16 18 19 19 20 19 18 17 17 17 16 14 10 9 15 19 20 21 22 22 23 23 23 23 23 22 20 19 18 17 16 15 13 13 12 12 11 11 12 13 14 15 15 16 16 16 15
22 22 23 24 26 27 27 28 27 27 28 27 27 26 25 23 22 20 20 20 19 17 16 16 15 15 14 14 14 15 15 16 16 15 15 15 15 15 15 16 17 18 18 19 18 18 17 16 15 15 14 11 9 13 18 21 23 23 24 24 25 25 25 25 23 22 22 21 21 19 17 16 15 15 14 14 14 14 14 15 16 16 17 17 17
22 23 23 24 26 27 28 28 28 29 29 29 29 28 27 26 25 23 23 22 22 21 20 18 16 15 15 14 13 14 14 15 15 15 15 16 16 16 15 15 15 16 16 17 17 18 17 16 15 15 14 13 12 10 12 17 21 24 26 26 25 25 25 26 26 25 25 24 23 22 20 19 19 18 17 17 17 16 16 15 15 16 17 17 18
22 23 24 25 26 27 27 28 29 30 31 31 31 30 30 29 28 27 26 25 25 25 24 22 20 18 17 16 15 14 14 15 16 17 17 16 16 16 16 16 16 15 15 15 16 16 16 16 15 15 14 13 13 13 12 12 15 19 24 27 28 27 26 26 27 27 28 27 26 25 23 22 21 21 20 20 20 20 19 17 16 16 17 18 18
22 23 24 25 25 26 27 29 30 31 31 31 32 32 31 31 30 29 28 27 27 27 26 25 23 22 21 20 19 17 16 16 17 18 19 18 18 17 17 16 16 16 16 15 15 14 14 15 15 15 14 13 13 13 13 13 13 14 17 22 26 29 29 28 27 28 29 30 29 28 27 25 24 24 23 23 23 22 22 20 18 17 18 18 19
23 23 24 24 25 26 27 28 29 30 30 31 32 32 32 32 31 30 30 29 28 27 27 26 25 24 23 23 22 22 20 19 19 20 21 21 21 20 19 18 18 18 17 16 15 15 13 13 13 14 14 13 13 13 13 13 13 14 15 16 20 24 28 30 30 29 30 31 31 31 30 30 29 28 27 26 25 24 23 22 22 21 20 20 19
22 23 24 24 25 25 26 27 28 29 30 31 31 31 31 32 31 31 30 29 29 28 27 26 26 25 25 25 25 25 23 22 21 21 22 23 23 23 23 21 20 20 20 18 17 16 15 13 12 12 13 13 13 13 13 13 13 14 14 15 16 19 22 26 29 30 30 31 31 32 32 32 33 32 31 29 28 27 26 26 25 24 24 24 23
22 23 23 24 24 25 26 27 27 28 29 30 31 31 32 32 31 31 31 30 29 29 28 27 26 26 26 26 26 26 25 24 23 23 23 24 24 25 25 24 23 22 22 21 19 18 17 15 12 11 11 12 12 12 13 14 14 14 14 15 15 16 18 20 24 27 29 29 29 30 30 31 32 33 33 33 32 31 31 31 30 28 26 26 25
21 22 23 23 24 25 26 27 28 28 29 30 30 31 32 32 31 31 31 31 31 30 29 28 27 26 26 26 27 27 27 26 24 24 25 25 25 25 26 25 25 24 23 22 21 20 19 18 15 13 12 12 11 11 12 13 14 15 15 16 16 16 17 18 20 23 26 28 28 29 29 29 29 29 31 33 34 35 35 35 34 31 30 29 28
21 22 23 23 24 25 26 27 28 28 29 29 30 31 31 31 31 31 31 31 31 31 30 28 27 26 26 26 27 27 27 26 25 25 26 27 26 26 26 25 26 26 25 24 22 21 20 19 18 16 15 14 13 12 12 13 14 16 16 17 17 17 17 17 18 20 21 24 26 28 29 29 29 27 27 28 31 33 35 37 37 35 34 33 32
20 21 22 23 24 25 26 27 28 29 29 30 30 30 31 31 32 32 32 33 32 32 31 30 28 27 27 27 27 27 27 26 25 26 27 29 29 29 28 27 27 27 26 25 24 22 21 20 20 19 18 17 16 16 15 14 14 15 17 18 18 19 19 19 19 19 19 20 21 24 26 27 29 28 27 26 26 29 32 35 37 38 38 37 36
20 20 21 23 24 25 26 27 28 29 30 30 31 31 31 32 33 33 33 33 33 33 32 31 30 30 29 29 29 29 28 27 26 26 28 30 31 31 30 29 29 28 27 25 24 22 22 22 21 21 21 20 19 19 18 17 16 16 17 18 19 20 21 21 21 21 21 20 20 20 22 23 25 27 28 26 25 25 28 31 34 36 38 40 40
19 20 21 22 24 25 26 27 28 29 30 31 31 32 32 32 32 33 33 33 33 33 33 32 31 31 30 29 30 30 30 29 27 26 27 29 30 31 32 32 32 30 28 25 22 21 21 22 23 23 23 23 23 23 22 21 19 18 18 19 20 21 22 22 22 22 23 23 23 22 22 22 23 24 26 26 25 24 24 26 30 33 37 40 41
18 19 20 22 23 24 25 27 28 29 30 31 32 32 32 32 32 33 33 33 33 32 32 32 32 31 30 29 29 30 30 30 29 28 27 28 29 32 34 35 34 33 29 25 22 20 20 22 23 24 25 25 26 26 26 25 23 22 21 21 21 22 22 23 24 24 24 25 25 26 26 26 26 26 26 27 27 26 26 26 27 30 34 38 41
18 19 20 21 23 24 25 26 28 29 30 31 31 32 32 32 32 33 33 33 33 33 33 32 32 32 31 30 29 30 31 31 31 30 29 30 31 33 35 35 35 35 31 25 22 21 22 23 24 26 27 27 28 28 29 29 27 25 23 23 23 24 24 25 25 26 26 26 27 27 27 28 28 29 29 29 29 29 29 29 29 30 32 35 40
18 19 20 21 22 24 25 26 27 29 30 31 31 32 32 32 32 33 33 33 33 33 32 32 32 32 32 31 31 31 32 32 32 31 31 32 32 34 35 35 35 34 29 24 23 23 23 25 26 28 29 29 30 30 30 30 29 28 27 26 25 25 25 26 27 27 27 28 28 28 28 29 29 30 31 32 32 33 34 34 35 35 35 36 38
18 19 21 22 23 24 25 26 27 28 29 30 31 32 33 33 33 33 33 33 32 32 32 32 32 32 32 31 31 31 32 33 33 32 32 33 34 34 35 36 35 33 27 22 23 24 25 27 28 29 31 31 32 33 32 32 31 29 29 28 28 27 27 28 28 29 29 29 29 30 30 30 31 32 34 35 36 38 39 40 41 42 42 41 41
19 20 21 22 23 25 26 27 28 28 29 30 32 33 33 34 34 33 33 33 33 33 33 33 33 33 33 33 32 32 32 33 33 34 34 35 35 35 36 36 36 32 26 23 24 27 29 31 31 32 32 33 33 34 34 34 32 31 29 29 29 28 29 29 30 30 30 30 30 31 32 34 35 36 38 41 43 44 45 46 46 46 46 43 42
19 20 22 23 24 25 26 28 28 29 30 31 32 33 34 34 34 34 34 35 35 35 35 35 35 35 35 34 34 33 33 33 33 34 35 36 36 37 37 37 36 33 28 26 28 31 33 34 35 34 33 33 34 34 35 35 34 34 32 30 30 30 31 32 33 33 34 34 34 35 37 39 40 42 45 47 48 48 48 47 46 45 44 43 43
20 21 22 23 25 26 27 28 29 30 31 31 32 33 34 35 35 35 36 36 37 37 37 37 37 36 36 35 35 34 34 34 34 34 34 35 36 37 37 37 36 35 32 30 32 34 36 37 37 36 35 35 35 35 36 36 36 36 36 34 34 34 36 37 38 39 39 40 40 41 43 44 46 47 47 46 45 44 42 40 40 39 39 40 41
22 22 23 24 26 27 28 29 30 31 31 32 32 33 34 34 35 36 36 37 38 39 39 39 38 38 37 37 36 35 35 35 35 35 35 35 36 37 38 38 37 36 35 34 34 36 38 39 39 38 38 38 38 37 37 37 38 38 38 38 38 39 41 43 43 44 44 45 45 46 46 46 45 44 41 39 38 37 37 37 37 37 36 37 39
23 24 25 26 27 28 29 30 31 32 33 33 33 33 33 34 35 36 37 38 39 40 40 40 40 40 39 38 37 37 36 36 36 37 37 37 38 38 39 39 39 39 38 37 37 38 39 40 40 40 40 40 40 40 39 39 39 39 39 40 40 42 44 44 44 43 44 44 45 45 44 41 39 38 37 36 36 36 36 37 38 37 36 36 37
24 25 27 27 28 30 31 32 33 34 35 34 34 33 33 35 36 37 39 40 40 41 41 41 42 42 41 41 40 39 38 38 39 39 40 40 40 41 41 42 42 41 41 41 41 41 41 42 42 42 42 42 42 42 41 41 40 40 41 41 41 43 44 42 40 39 38 38 38 38 37 37 37 37 37 37 37 36 36 36 36 36 37 37 38
26 27 28 29 30 32 33 33 34 36 36 35 34 34 35 37 38 39 40 41 42 42 42 43 43 43 44 44 43 40 39 40 41 42 42 43 43 44 44 44 44 44 44 44 44 44 44 44 45 45 44 44 44 43 43 43 43 42 42 42 42 43 42 40 38 35 34 33 34 34 34 36 37 38 38 39 38 37 36 36 36 37 37 38 39
27 28 29 30 31 33 34 35 36 37 37 36 36 36 38 39 40 41 41 42 43 43 43 44 45 45 47 47 44 40 40 43 44 45 45 46 45 46 46 46 46 46 46 46 47 47 47 47 47 47 46 46 45 45 45 45 45 45 45 44 43 43 42 40 38 36 34 33 33 34 35 36 38 38 38 38 39 38 38 38 38 39 39 40 41
28 29 30 31 32 34 36 36 37 37 38 38 38 39 40 41 41 42 43 44 44 45 45 46 48 48 48 47 45 44 45 47 48 48 48 48 47 47 47 48 48 48 48 48 49 50 50 49 48 48 47 46 46 46 46 46 47 47 47 47 45 44 43 41 39 39 38 37 36 37 38 40 41 40 38 38 38 38 39 39 40 41 42 43 44
30 31 32 32 33 35 37 38 38 38 39 39 40 40 42 43 43 44 45 45 46 46 47 49 50 50 49 49 48 48 48 49 50 50 50 50 49 49 48 49 49 50 51 51 51 52 52 51 50 49 48 47 46 46 46 47 49 49 50 49 48 46 44 43 42 41 42 43 43 43 44 45 45 44 42 41 40 40 40 41 42 44 45 46 48
32 33 34 34 35 36 38 39 40 40 39 40 41 42 43 44 45 46 46 47 47 47 48 51 52 51 51 52 51 50 50 51 52 52 52 52 51 51 51 51 52 53 53 54 53 53 53 53 52 50 49 47 45 44 45 49 52 52 51 51 49 48 46 44 44 44 44 45 46 47 48 48 48 48 47 46 45 44 45 45 46 48 49 49 51
34 35 35 36 36 38 39 40 42 42 41 41 42 44 45 46 47 48 48 49 50 49 49 52 53 53 53 54 54 53 52 52 52 52 52 52 53 53 54 54 55 56 57 57 56 55 53 52 51 49 48 45 42 42 47 54 56 54 52 51 49 48 46 45 46 46 45 46 47 48 49 50 50 50 50 50 51 51 51 50 50 51 52 52 53
36 36 37 37 37 39 41 42 43 43 41 42 44 46 47 48 49 49 50 51 52 51 50 52 54 54 55 56 56 55 54 54 53 52 52 52 53 54 55 56 57 58 58 59 58 55 51 48 45 43 41 39 39 43 52 58 58 54 51 49 47 46 46 48 48 47 46 47 48 48 49 50 51 52 53 54 55 56 56 55 54 54 55 55 55
38 38 38 38 38 40 41 43 43 43 42 43 46 47 48 50 51 51 52 53 54 53 52 53 55 56 56 57 58 57 56 56 55 53 53 53 54 54 55 57 58 59 59 59 56 51 46 43 42 39 36 36 40 48 56 61 58 53 49 46 45 46 48 50 49 48 48 48 48 49 50 51 52 54 55 56 57 58 59 58 58 57 58 58 57
39 40 40 40 40 41 42 43 43 44 43 44 47 48 50 51 52 53 54 55 55 54 53 54 57 58 58 58 58 58 58 57 56 54 54 54 55 55 57 58 58 59 59 57 53 49 46 45 43 40 39 40 44 52 60 60 55 51 50 47 46 47 48 49 48 48 48 48 49 51 52 53 53 55 57 58 59 60 61 62 61 61 61 59 58
41 42 42 42 42 42 42 43 44 45 45 46 48 49 50 52 54 55 55 56 57 56 55 56 58 59 59 59 59 59 59 58 57 56 56 56 56 57 59 59 59 59 58 55 52 50 49 48 46 45 44 46 50 56 59 54 48 47 49 48 47 46 46 48 49 48 47 48 49 51 53 54 55 57 59 61 63 64 64 64 63 63 62 61 60
44 44 44 44 43 43 44 44 46 47 48 48 49 49 50 52 54 56 57 58 58 58 58 59 59 59 59 59 60 60 60 59 58 58 57 58 59 60 60 60 60 60 57 54 53 52 51 52 51 51 52 54 55 53 50 46 44 44 47 49 49 48 49 51 51 48 46 46 48 50 53 54 56 60 63 65 66 65 64 63 63 63 63 62 62
46 46 45 45 45 45 45 46 48 49 50 50 51 51 51 53 55 57 58 60 61 60 60 60 59 59 59 60 60 61 61 60 60 59 58 59 61 61 61 61 61 60 57 55 54 54 55 55 55 57 58 53 47 43 44 46 47 48 51 53 54 54 55 55 54 52 49 48 49 51 53 56 59 63 65 66 65 64 62 62 63 65 65 65 65
48 47 46 46 46 46 47 49 51 52 52 53 53 53 53 54 56 57 60 62 63 63 61 60 59 60 60 61 61 62 62 61 61 60 60 61 62 61 61 61 61 59 57 57 58 58 57 56 56 56 50 40 37 43 49 53 54 54 55 57 58 59 59 59 59 58 55 53 53 54 57 58 60 62 64 64 64 63 62 63 65 67 68 67 66
49 49 48 48 49 50 51 52 54 54 55 55 55 55 56 56 57 59 61 63 65 64 63 61 60 61 62 63 63 63 63 63 62 61 61 62 62 61 61 61 60 59 59 60 61 58 54 52 53 50 41 34 39 49 56 59 61 61 61 61 61 61 59 59 60 59 57 55 55 56 59 60 60 61 63 64 65 65 65 66 67 67 67 67 66
52 52 51 52 53 54 54 55 56 57 57 57 58 58 58 59 60 61 62 64 66 65 63 63 63 64 65 65 65 65 64 64 64 63 63 63 62 60 59 59 58 60 63 65 62 55 50 50 50 47 40 39 45 52 58 65 69 69 67 65 63 60 57 57 58 58 57 54 53 55 59 60 60 61 63 66 66 66 66 67 67 67 67 67 67
56 55 54 56 57 57 57 58 58 59 60 60 60 60 61 61 61 62 64 66 66 64 63 64 66 67 67 67 67 66 66 65 65 65 64 63 62 59 58 57 59 62 66 66 58 50 48 50 48 46 44 45 49 54 60 70 75 74 71 67 64 60 58 56 56 58 58 55 53 54 57 60 61 60 63 65 66 67 68 68 68 68 68 69 69
58 58 58 59 59 59 60 61 61 61 62 62 62 63 63 63 62 63 66 66 65 65 65 66 68 69 69 69 69 67 66 66 66 66 65 63 60 58 56 58 62 64 65 60 50 45 47 48 47 50 52 50 53 58 66 75 79 77 74 71 68 63 59 57 57 58 58 57 55 55 57 61 61 60 62 65 66 67 69 70 70 70 70 70 70
62 62 62 62 62 62 63 64 64 64 64 64 65 65 65 64 63 63 65 67 66 65 66 68 71 71 70 70 69 67 67 67 66 65 63 61 58 56 56 60 64 63 59 52 43 43 49 48 50 57 58 56 61 71 77 81 81 79 78 76 72 67 63 60 59 58 58 58 57 57 58 62 63 62 64 66 67 69 71 71 71 71 71 71 71
65 65 65 65 65 65 66 66 66 66 66 66 67 67 66 66 64 63 66 66 64 64 69 72 71 68 67 67 66 67 68 67 64 63 61 58 56 55 57 61 62 58 53 47 43 47 52 50 54 64 66 68 77 84 86 85 83 82 82 80 76 72 67 61 58 58 59 59 58 57 58 61 64 64 66 68 70 73 74 73 72 72 71 71 71
67 67 67 68 68 69 69 68 68 68 68 68 69 68 68 66 65 64 65 64 63 67 70 66 60 59 63 66 66 67 68 66 63 61 59 55 53 54 57 61 60 56 52 48 47 50 51 50 56 65 71 77 84 87 87 87 86 85 85 83 80 76 69 63 61 64 65 64 62 60 60 64 68 69 71 74 75 76 77 75 73 72 72 71 71
69 69 70 70 71 71 71 70 70 70 70 70 70 70 69 67 65 65 64 63 63 63 60 54 52 56 62 66 68 68 66 64 62 60 56 52 52 54 58 61 61 56 50 48 48 48 48 50 57 64 72 81 86 86 87 88 87 89 88 86 83 78 72 68 67 69 72 73 72 70 69 72 75 76 77 78 78 79 80 78 76 75 73 71 69
72 72 72 72 73 73 73 73 73 72 71 71 71 71 70 68 65 65 64 62 60 56 53 55 57 57 61 66 67 65 64 62 61 58 53 49 52 56 59 61 61 56 51 50 51 51 54 60 67 73 80 85 86 86 88 88 90 91 90 88 84 77 73 72 72 73 75 77 79 78 77 78 80 79 79 78 78 80 80 79 78 77 74 70 67
75 75 74 74 75 76 76 76 75 74 73 72 73 73 71 68 66 66 63 62 62 58 55 56 57 57 62 66 64 62 62 61 58 55 50 49 53 59 61 62 62 60 56 55 57 61 68 74 78 82 86 88 88 89 90 91 93 93 92 90 84 76 74 76 76 76 78 80 81 81 80 80 81 81 79 76 76 79 81 79 77 76 74 70 66
Wind_Direction
36 35 35 34 34 34 34 33 34 34 33 32 33 32 31 28 27 30 33 35 35 35 34 36 38 38 37 36 34 33 32 31 30 29 30 30 29 28 28 28 29 33 32 27 12 323 279 262 256 255 249 242 243 239 230 225 220 216 214 209 206 206 220 235 242 243 245 247 247 248 251 254 258 260 264 268 274 279 283 288 287 285 283 284 302
35 35 34 33 33 33 33 32 32 32 31 29 28 27 28 28 27 27 27 28 29 30 30 30 32 34 36 36 33 31 29 28 26 24 25 27 28 27 26 24 23 24 24 25 25 17 340 276 255 252 249 240 238 239 233 229 226 225 230 232 232 235 237 243 245 244 247 252 252 252 253 255 257 260 262 265 268 272 275 279 282 283 282 279 282
36 35 34 33 33 33 32 32 31 31 30 28 26 24 23 25 26 25 21 19 19 22 26 26 26 27 30 33 34 33 30 28 25 22 21 22 23 24 24 23 22 21 18 18 21 24 21 349 276 254 249 243 238 238 236 233 230 230 236 240 241 244 245 243 244 242 245 253 256 257 259 259 261 261 264 266 265 267 269 272 275 277 281 281 282
37 36 35 34 33 33 32 31 29 28 26 25 24 22 21 20 20 18 13 10 9 12 17 19 19 19 19 22 25 26 28 30 27 22 19 18 18 19 19 19 19 20 18 15 15 17 20 19 353 280 256 249 245 242 240 238 235 233 237 243 244 245 246 243 242 244 245 251 252 253 261 269 270 268 267 267 267 267 266 267 269 271 274 277 280
37 36 34 34 33 33 31 29 28 26 24 21 19 17 16 16 15 12 8 6 6 5 6 8 9 9 11 12 12 13 17 20 21 20 18 16 15 15 14 13 14 15 15 13 11 11 12 15 15 354 288 259 252 250 247 245 243 238 236 240 243 245 246 245 243 244 246 248 249 250 256 264 270 273 274 273 272 269 267 267 266 268 269 271 274
36 35 33 33 33 32 31 30 29 27 25 23 20 17 15 13 12 11 9 8 6 4 2 1 0 1 3 4 4 4 6 8 8 8 9 10 9 10 9 8 8 8 9 9 9 8 7 7 10 10 353 297 264 257 254 253 252 248 243 240 240 243 245 247 246 245 246 247 248 249 250 255 261 267 272 276 277 275 271 269 268 268 268 269 271
36 35 34 33 33 32 31 31 30 28 27 25 23 20 19 17 16 14 12 11 10 8 5 1 357 356 356 358 359 359 359 359 358 359 360 1 1 2 3 2 2 2 2 2 4 5 4 3 3 4 3 351 313 275 263 259 258 257 254 248 245 244 245 248 250 248 247 247 248 250 250 251 256 261 264 268 272 275 274 272 270 269 269 271 271
36 36 36 35 34 33 32 31 30 29 27 25 23 21 20 19 17 15 13 12 11 11 8 5 359 354 351 352 355 356 354 350 347 349 352 354 354 355 357 357 356 356 355 354 356 359 359 359 359 359 356 355 350 329 295 274 265 262 261 259 255 251 248 247 249 249 247 247 248 250 252 252 253 257 260 263 266 268 270 271 272 271 270 271 271
36 36 36 34 34 33 31 30 29 28 27 25 23 22 20 18 16 13 11 10 8 7 6 5 2 358 354 351 351 351 350 345 340 339 342 346 347 348 349 349 349 349 349 349 348 349 350 352 352 354 354 350 347 344 335 314 290 274 266 264 262 261 256 251 249 248 247 247 248 249 250 250 251 254 256 258 260 261 261 262 267 270 269 268 269
35 35 34 33 32 31 30 29 29 28 27 26 24 22 20 18 16 13 11 9 7 6 4 3 1 359 357 354 352 350 348 343 337 335 335 338 339 339 340 341 341 341 341 342 341 341 340 341 342 345 348 348 345 341 337 331 319 302 284 272 267 265 263 260 254 249 247 247 249 251 253 251 249 250 252 254 256 259 260 258 259 264 268 269 268
33 33 32 31 30 29 29 28 27 26 26 26 24 22 21 19 17 14 12 10 8 6 5 3 2 0 358 356 354 352 350 346 341 337 336 336 336 335 336 335 334 335 335 333 331 331 331 331 331 334 337 340 342 340 336 331 324 317 307 293 280 271 266 264 262 257 251 248 249 252 253 253 252 249 250 251 254 258 260 259 256 258 263 265 265
30 30 29 28 27 26 26 26 25 25 25 24 23 22 21 19 17 15 13 11 9 7 5 4 2 0 358 355 354 352 351 350 347 343 340 339 337 336 336 335 332 329 330 329 326 322 321 322 321 320 323 327 332 335 334 330 325 319 313 305 295 284 274 267 264 263 260 254 252 252 251 251 252 252 252 251 250 252 254 254 252 252 255 258 260
28 27 27 25 24 23 22 22 23 22 22 22 21 20 20 19 16 15 13 11 10 8 5 3 1 359 357 355 354 352 352 352 351 349 346 344 341 338 339 337 332 328 327 327 325 320 316 315 313 308 307 312 317 323 326 327 324 321 316 308 299 289 282 272 265 263 262 259 257 255 253 249 249 251 253 253 251 249 249 250 250 249 250 252 256
25 24 23 23 21 20 19 19 20 20 20 19 18 18 18 17 15 14 13 11 9 7 4 2 359 358 356 354 353 351 350 350 351 351 351 350 346 342 341 339 334 330 327 326 325 322 317 314 310 303 297 297 301 306 312 317 319 318 315 311 303 294 284 276 270 264 260 258 256 256 256 253 249 247 248 250 250 250 249 250 250 249 248 248 249
22 21 20 19 17 17 17 16 16 16 16 16 16 15 14 14 14 13 12 11 9 7 4 1 358 356 354 353 351 349 347 347 347 348 349 350 350 347 344 340 336 333 330 326 324 323 320 315 310 305 299 292 290 291 295 302 307 309 310 307 304 299 292 283 276 270 264 259 256 256 255 254 250 247 244 244 245 247 249 251 251 248 247 247 246
19 18 17 15 14 14 14 13 12 12 13 13 13 12 11 11 11 11 10 9 8 6 4 1 358 355 353 352 350 348 346 344 343 343 345 346 347 347 345 342 337 334 331 326 323 323 322 318 313 308 304 297 290 286 285 288 293 298 301 301 300 297 295 290 284 279 274 267 261 258 255 253 250 247 245 242 240 241 244 248 251 250 249 247 246
15 14 13 12 12 12 11 10 9 9 9 10 10 9 8 8 8 8 8 8 6 5 3 0 358 355 353 351 349 348 346 343 340 339 340 342 343 344 344 341 338 334 330 324 321 322 322 320 316 312 309 304 297 290 285 283 284 287 290 292 293 293 291 289 286 283 280 274 269 263 258 256 253 250 248 246 244 242 242 243 245 247 249 249 248
11 10 10 9 10 10 9 8 7 7 7 7 7 7 6 5 4 4 5 5 5 4 2 360 357 355 353 351 348 347 346 344 340 337 336 337 340 342 343 341 337 333 329 322 318 320 322 319 316 314 311 308 304 299 292 287 284 282 283 285 287 288 288 287 285 283 281 278 273 268 264 261 260 258 255 252 251 251 252 249 245 243 244 246 248
6 6 6 6 6 6 6 6 5 5 5 5 5 4 3 2 1 1 2 3 3 2 1 359 357 355 352 350 347 345 344 343 341 338 335 334 334 337 339 339 337 334 329 323 317 317 320 319 315 313 312 310 308 305 300 294 289 286 283 283 283 284 285 286 286 284 282 280 276 273 269 266 264 264 262 260 258 258 259 261 259 254 248 244 244
0 1 2 3 3 3 3 3 3 3 3 3 2 1 0 360 359 358 359 359 359 359 359 358 356 354 352 349 346 344 343 342 341 340 338 335 332 332 334 336 335 333 329 326 320 317 317 317 315 313 311 311 310 308 304 299 294 290 286 284 284 284 285 285 286 285 283 281 279 277 274 272 270 270 269 268 266 266 266 266 267 267 263 254 245
355 357 357 358 359 358 359 359 0 1 1 0 360 359 358 358 358 356 356 356 356 356 357 356 355 353 351 350 348 346 344 342 340 339 338 336 333 332 333 334 332 330 327 327 328 324 320 318 316 314 312 311 308 306 303 301 298 294 290 287 285 285 286 286 284 283 283 281 280 279 277 277 277 277 276 274 274 274 275 274 272 271 271 268 257
349 351 352 353 354 354 354 355 357 358 358 357 357 357 356 356 356 354 353 352 352 354 355 355 354 352 352 351 350 349 346 343 340 338 337 336 335 334 334 334 333 329 324 324 330 331 328 324 319 316 314 310 306 303 300 300 300 298 294 290 287 286 286 286 285 283 282 282 281 281 281 282 283 283 283 282 282 281 280 279 278 275 272 270 265
343 346 347 348 348 349 350 351 352 353 354 354 354 354 354 354 353 352 350 349 350 351 353 353 353 353 352 352 351 350 347 344 340 337 335 335 335 335 335 336 336 333 326 319 323 328 330 328 324 319 314 310 307 304 301 299 299 299 297 293 290 289 288 288 287 286 285 285 285 286 287 287 287 287 287 286 284 283 282 280 279 277 271 266 263
337 340 342 343 344 344 345 346 348 349 350 351 351 351 352 351 351 349 348 347 348 349 351 351 352 352 351 351 350 349 348 344 341 338 335 334 334 334 335 336 337 336 330 321 317 321 325 325 323 318 313 310 308 306 304 301 299 298 298 297 296 296 295 294 292 291 291 291 290 290 290 289 287 287 286 285 283 281 280 279 277 273 268 262 258
332 335 337 339 340 340 341 342 344 345 346 347 348 348 349 349 348 347 346 346 346 347 349 349 349 349 349 348 348 347 346 344 341 338 336 334 334 333 334 335 335 335 331 325 320 319 320 321 320 317 313 311 310 309 307 305 303 302 303 304 303 302 300 298 295 292 290 289 289 288 287 286 285 285 285 283 281 279 276 273 271 268 265 260 254
328 331 333 335 336 337 338 339 340 341 342 343 344 346 347 347 346 345 344 345 345 345 347 347 346 346 346 345 345 344 343 342 340 338 336 334 334 333 333 333 332 331 329 326 322 319 318 319 318 317 315 313 313 312 309 308 306 306 306 305 304 302 300 297 292 288 285 284 284 284 284 284 284 284 283 283 282 277 271 268 267 266 263 259 254
325 327 329 331 333 334 335 337 338 338 338 339 340 342 344 345 344 344 343 343 343 344 344 344 343 343 343 343 342 341 341 341 340 338 337 335 334 334 333 332 331 329 327 325 323 321 319 319 318 317 315 314 314 313 310 308 306 305 304 302 301 299 298 296 291 286 283 283 282 282 282 281 281 280 280 282 282 278 272 268 266 264 260 256 253
322 324 326 328 330 332 333 335 336 336 335 335 336 338 340 341 342 342 342 341 342 342 342 342 341 340 340 340 339 339 340 340 340 339 337 336 335 334 333 332 330 329 327 326 323 322 321 320 318 317 315 314 314 312 310 307 304 303 301 300 299 298 297 295 290 284 282 281 281 280 278 277 277 277 277 278 279 277 273 270 267 264 259 254 251
318 320 323 325 328 330 332 332 333 334 334 334 335 336 336 335 336 337 338 339 339 340 340 339 339 338 338 338 337 336 339 341 341 340 338 336 335 333 332 331 330 328 327 325 323 322 321 320 318 317 315 314 313 312 310 307 304 301 300 299 298 296 295 294 288 280 278 279 278 277 276 275 276 277 277 277 277 275 273 271 269 266 263 259 254
315 317 320 322 325 328 330 330 330 332 334 334 334 334 333 331 332 333 334 335 336 337 338 337 336 336 337 339 338 336 337 339 340 339 338 336 334 332 331 330 329 328 326 324 322 321 320 318 317 316 315 313 312 311 310 308 305 302 300 298 298 295 293 293 288 279 275 276 277 277 277 278 279 280 279 278 277 276 274 271 269 267 266 263 260
313 315 317 319 323 325 327 327 327 328 331 332 332 331 329 329 330 331 332 332 333 334 335 335 334 335 337 339 339 337 335 336 336 336 336 335 333 331 330 329 327 326 325 323 321 319 318 317 316 315 314 313 312 312 311 309 306 303 300 298 297 295 293 291 289 282 277 275 276 277 278 280 282 282 281 280 278 277 276 274 273 271 268 266 263
311 312 314 317 320 322 323 324 324 325 327 329 330 328 327 327 328 330 331 332 332 332 333 334 333 333 336 338 339 338 336 335 334 334 334 333 331 329 328 327 326 324 323 322 320 318 317 316 315 314 313 313 313 312 312 311 308 304 301 299 297 297 294 291 289 285 281 278 277 278 280 282 283 283 283 282 281 279 278 276 275 274 272 270 267
309 311 313 316 318 319 320 321 321 322 324 326 327 327 326 326 327 329 330 331 331 330 332 333 332 333 335 337 337 337 336 335 334 333 332 331 329 328 327 326 325 324 323 321 320 318 316 316 315 314 313 313 313 314 316 316 311 306 303 300 298 297 295 293 290 287 283 281 280 280 282 283 283 283 283 282 282 281 281 280 278 276 275 274 272
307 310 312 314 316 317 318 318 318 319 320 323 326 325 324 324 326 327 329 330 330 329 330 332 332 332 334 336 336 336 335 334 333 332 330 329 327 326 325 325 324 324 323 322 321 319 317 316 314 313 312 311 313 316 321 320 314 308 304 301 298 295 294 294 292 288 284 283 282 283 284 285 285 285 284 283 282 282 282 282 280 278 277 278 276
306 308 309 311 314 315 316 316 316 316 317 320 323 322 322 323 324 327 328 329 329 327 328 331 332 331 332 334 334 334 334 333 332 331 329 327 325 324 324 324 324 324 324 323 321 320 320 319 317 314 311 310 314 319 322 321 316 310 306 302 298 296 294 295 293 289 284 282 282 284 285 286 286 286 285 283 283 283 283 283 282 281 280 280 279
303 304 306 309 311 312 313 313 313 314 314 316 320 321 320 321 323 325 327 328 328 327 327 330 331 330 330 332 333 333 332 332 331 329 327 325 324 323 323 323 324 324 324 324 324 323 324 325 323 318 311 308 313 319 322 321 316 312 308 303 299 297 296 295 293 289 286 284 283 284 285 286 286 285 285 284 284 284 284 284 284 284 283 282 281
300 302 304 306 307 308 309 309 310 311 312 314 317 318 319 320 322 324 325 325 326 326 325 326 329 329 329 330 331 331 331 330 330 328 326 324 323 322 322 323 324 325 325 325 325 324 324 325 323 319 311 308 312 318 320 319 316 314 311 306 301 299 298 296 293 291 290 289 288 288 288 288 287 287 287 287 286 286 285 286 286 286 286 284 282
297 300 302 303 304 304 305 306 307 308 310 312 315 316 318 319 320 322 322 322 323 324 324 325 326 327 328 329 330 330 330 329 328 327 325 323 322 322 322 324 325 326 326 326 324 323 323 322 320 318 314 312 313 316 318 318 317 318 317 312 306 303 301 297 294 293 293 292 290 289 288 287 287 287 287 288 287 286 286 287 287 287 286 285 283
295 298 299 300 300 301 302 303 303 305 308 310 312 314 315 317 318 319 319 320 321 322 324 325 325 326 327 328 329 329 329 328 327 326 324 322 322 322 324 325 326 327 327 326 324 323 322 320 319 318 315 313 314 317 321 324 322 322 322 318 313 307 302 297 294 293 292 290 288 286 285 285 286 286 286 287 287 287 287 287 286 285 284 283 283
294 296 296 296 297 298 299 300 302 303 306 308 310 312 314 315 316 316 317 318 320 322 323 324 325 325 327 327 328 327 327 327 327 325 323 322 322 323 325 326 326 327 327 326 325 324 322 319 319 318 317 317 321 327 333 333 328 324 322 320 316 310 304 298 293 292 291 289 286 285 284 283 283 284 286 287 288 288 288 287 285 284 284 284 283
293 294 293 293 295 297 297 299 301 302 304 306 308 310 312 314 314 315 316 318 319 321 322 322 323 324 325 326 326 326 326 327 326 325 323 323 323 324 325 326 326 327 327 327 326 324 321 320 321 323 325 329 334 337 338 336 332 325 320 317 314 310 305 298 293 292 291 289 288 285 283 282 281 282 284 285 286 286 286 284 283 283 283 283 283
291 291 290 290 293 295 296 298 300 301 302 304 307 310 311 312 313 314 316 317 319 320 320 321 322 324 324 325 325 326 326 327 326 325 323 324 324 325 325 325 326 326 327 328 326 323 323 324 326 329 331 332 335 336 338 337 334 329 323 319 315 311 306 300 296 293 292 290 288 286 285 284 284 284 285 285 285 285 284 283 283 283 283 283 284
287 288 289 289 291 294 296 297 299 301 301 303 306 309 310 311 313 315 316 317 318 318 319 320 321 323 323 324 325 326 326 327 326 324 324 324 324 324 325 324 324 325 327 327 324 323 324 327 328 329 326 324 326 330 332 333 331 330 327 323 319 315 308 302 298 295 293 292 289 288 287 287 288 288 287 286 285 285 285 285 285 285 286 286 286
285 287 288 289 291 294 296 297 299 300 300 302 305 307 308 310 313 314 316 317 317 317 318 319 321 322 322 324 325 325 326 326 325 324 325 325 324 324 324 323 323 324 325 325 323 323 327 330 332 332 326 322 322 325 327 328 328 329 328 326 322 318 311 304 298 295 294 293 292 291 291 290 290 290 289 288 288 288 287 287 287 288 288 288 288
285 285 286 289 292 294 295 296 298 299 300 301 303 306 308 310 312 314 315 316 316 316 316 319 321 321 322 324 324 325 326 326 324 324 324 325 325 325 324 323 324 325 326 326 323 325 328 331 333 334 330 325 322 324 325 326 327 329 329 327 324 319 313 306 300 296 295 294 294 293 293 292 292 293 293 292 292 292 291 290 289 289 289 289 289
285 285 287 290 292 294 294 296 297 298 299 300 302 305 307 309 312 313 313 314 315 315 317 320 320 320 322 324 324 324 325 324 323 324 325 325 325 326 325 325 326 328 328 327 323 324 327 328 331 333 330 327 325 326 326 326 327 328 329 327 324 321 315 308 302 299 297 295 294 293 293 293 294 296 297 296 296 296 294 292 291 290 289 289 289
285 286 288 290 292 293 294 295 296 296 297 299 301 304 306 308 310 311 312 313 314 315 317 319 320 322 324 324 323 323 323 323 324 325 325 325 327 326 326 329 331 331 330 327 323 325 326 326 330 333 330 327 328 328 327 326 326 327 328 328 325 322 317 309 304 302 300 298 296 294 294 296 297 299 300 300 300 298 296 294 292 291 290 289 289
284 286 287 289 291 292 293 294 294 295 297 298 300 303 304 307 309 310 311 312 313 316 319 321 326 327 323 320 319 320 320 322 325 326 325 326 327 326 328 333 335 332 329 325 322 326 329 330 331 329 326 326 327 326 325 325 326 327 328 327 325 322 319 312 307 307 307 306 304 303 302 303 303 303 303 302 301 300 297 295 294 292 290 289 289
284 285 287 288 290 291 291 292 293 294 296 297 299 301 303 306 308 309 310 311 315 320 321 321 323 318 311 311 315 316 318 322 324 325 325 326 325 325 329 335 337 334 331 329 327 330 334 332 328 324 324 326 326 325 324 325 327 328 329 327 325 323 320 315 311 309 310 309 309 310 309 307 304 303 302 302 301 299 298 296 295 292 290 289 288
283 285 286 287 288 289 290 291 292 293 294 296 298 300 302 305 307 308 309 310 314 317 314 311 312 309 305 308 312 314 318 322 323 323 325 324 323 325 329 334 337 337 335 334 332 331 331 330 329 329 328 328 326 325 326 327 328 329 329 326 324 320 317 316 313 310 309 308 308 309 307 304 302 301 301 300 300 299 297 296 295 293 291 289 288
282 284 285 287 288 288 289 290 291 292 293 295 297 299 301 304 305 306 307 308 311 312 308 306 307 305 305 309 312 315 319 321 321 322 323 321 321 325 329 331 334 335 334 332 330 331 332 333 333 332 330 328 327 327 328 329 330 330 328 325 322 318 315 314 312 309 308 305 304 305 304 302 301 301 300 300 299 298 297 296 294 292 290 289 288
Height
10967 10965 10964 10963 10962 10961 10960 10959 10958 10957 10955 10954 10953 10953 10952 10951 10951 10950 10948 10948 10947 10946 10946 10945 10944 10943 10941 10940 10939 10937 10936 10935 10934 10932 10931 10930 10929 10928 10927 10927 10926 10924 10923 10922 10921 10920 10920 10921 10921 10922 10923 10924 10924 10924 10924 10925 10925 10925 10925 10925 10925 10926 10926 10926 10926 10926 10927 10927 10928 10928 10928 10928 10928 10928 10928 10928 10928 10928 10928 10928 10927 10927 10928 10927 10927
10968 10967 10966 10965 10964 10962 10961 10960 10959 10958 10956 10955 10955 10954 10953 10952 10952 10951 10950 10949 10948 10947 10946 10945 10945 10944 10943 10941 10940 10938 10937 10935 10934 10933 10932 10931 10930 10929 10928 10927 10926 10924 10923 10921 10920 10919 10919 10919 10919 10920 10921 10922 10922 10922 10922 10923 10923 10924 10924 10925 10925 10925 10925 10926 10926 10926 10926 10926 10927 10927 10928 10928 10928 10928 10928 10928 10928 10928 10928 10927 10927 10927 10927 10927 10927
10969 10968 10967 10966 10965 10964 10962 10961 10960 10958 10957 10956 10956 10955 10954 10954 10953 10952 10951 10950 10949 10948 10947 10946 10946 10945 10944 10942 10941 10940 10938 10936 10935 10934 10932 10931 10930 10929 10928 10927 10926 10925 10923 10922 10920 10919 10918 10918 10918 10918 10919 10919 10920 10920 10920 10920 10921 10922 10923 10923 10924 10924 10924 10925 10925 10925 10925 10926 10926 10926 10927 10927 10927 10927 10928 10928 10928 10928 10927 10927 10927 10927 10927 10927 10927
10971 10969 10968 10967 10966 10965 10963 10962 10960 10959 10958 10957 10956 10955 10955 10954 10953 10952 10951 10950 10949 10948 10948 10947 10946 10945 10944 10943 10941 10940 10939 10937 10936 10935 10934 10932 10931 10930 10929 10928 10927 10925 10924 10922 10921 10919 10918 10918 10917 10917 10917 10918 10918 10919 10919 10919 10919 10920 10921 10921 10922 10923 10923 10924 10924 10924 10925 10925 10925 10926 10926 10926 10927 10927 10927 10927 10927 10927 10927 10927 10926 10926 10926 10926 10926
10972 10970 10970 10969 10967 10966 10964 10962 10961 10959 10958 10957 10957 10956 10955 10953 10952 10952 10951 10950 10949 10948 10947 10947 10946 10945 10944 10942 10941 10940 10939 10937 10936 10935 10934 10933 10932 10931 10929 10928 10927 10926 10925 10923 10922 10920 10919 10918 10917 10916 10916 10916 10917 10918 10918 10918 10918 10918 10919 10920 10920 10921 10921 10922 10922 10923 10923 10924 10924 10925 10925 10925 10926 10926 10926 10926 10926 10926 10926 10926 10926 10925 10925 10925 10925
10972 10971 10971 10970 10968 10966 10964 10963 10962 10961 10960 10959 10957 10956 10955 10953 10952 10951 10951 10950 10949 10948 10946 10945 10945 10944 10943 10942 10941 10940 10938 10937 10936 10936 10935 10934 10933 10931 10930 10928 10927 10926 10925 10924 10922 10921 10920 10918 10917 10916 10915 10915 10915 10916 10917 10917 10917 10917 10917 10918 10918 10919 10919 10920 10920 10921 10922 10922 10923 10923 10924 10924 10924 10925 10925 10925 10925 10925 10925 10925 10925 10925 10924 10925 10925
10973 10973 10972 10970 10968 10966 10965 10964 10963 10962 10961 10960 10958 10957 10956 10954 10953 10952 10951 10950 10949 10947 10946 10945 10944 10943 10942 10941 10940 10939 10938 10937 10936 10935 10935 10934 10932 10931 10930 10929 10927 10926 10925 10924 10923 10922 10920 10919 10917 10916 10915 10915 10914 10914 10915 10915 10915 10915 10915 10915 10916 10917 10917 10918 10918 10919 10920 10920 10921 10921 10922 10923 10923 10923 10924 10924 10924 10924 10924 10924 10924 10924 10924 10924 10924
10975 10974 10973 10971 10969 10967 10966 10966 10964 10963 10962 10960 10959 10958 10956 10955 10953 10952 10951 10950 10949 10947 10946 10945 10944 10943 10942 10941 10941 10939 10938 10937 10936 10935 10934 10933 10932 10931 10930 10929 10928 10927 10926 10924 10923 10922 10920 10919 10918 10916 10915 10914 10913 10913 10913 10913 10913 10913 10913 10913 10913 10914 10915 10916 10917 10917 10917 10917 10918 10919 10919 10920 10921 10921 10922 10922 10922 10922 10922 10922 10922 10923 10923 10922 10922
10975 10974 10973 10971 10969 10969 10968 10966 10965 10964 10962 10961 10960 10958 10957 10955 10953 10952 10951 10949 10948 10947 10946 10945 10944 10943 10942 10942 10941 10940 10939 10937 10935 10934 10933 10932 10932 10931 10930 10929 10927 10926 10925 10924 10923 10922 10921 10919 10917 10916 10915 10914 10913 10912 10912 10911 10911 10911 10911 10910 10910 10911 10912 10913 10914 10914 10914 10914 10915 10915 10916 10917 10918 10918 10919 10919 10919 10919 10919 10920 10920 10921 10921 10921 10921
10975 10974 10972 10971 10970 10969 10968 10967 10966 10965 10963 10962 10960 10959 10957 10956 10954 10952 10951 10950 10948 10947 10946 10945 10944 10943 10942 10941 10940 10939 10939 10937 10935 10933 10932 10931 10931 10930 10929 10928 10927 10926 10925 10923 10922 10921 10920 10919 10917 10916 10914 10913 10912 10911 10911 10910 10909 10909 10908 10908 10908 10908 10909 10910 10911 10911 10911 10912 10912 10912 10913 10914 10915 10916 10916 10916 10916 10916 10917 10918 10918 10918 10918 10919 10919
10975 10974 10973 10972 10971 10970 10969 10968 10967 10966 10965 10963 10962 10960 10959 10957 10955 10953 10952 10951 10949 10948 10947 10945 10944 10943 10942 10940 10939 10938 10938 10937 10935 10933 10932 10930 10929 10928 10928 10927 10926 10925 10923 10922 10921 10920 10919 10918 10917 10915 10914 10912 10911 10910 10909 10909 10908 10907 10907 10906 10906 10906 10906 10906 10907 10907 10908 10909 10909 10910 10910 10911 10911 10912 10913 10914 10914 10915 10916 10916 10915 10915 10916 10916 10916
10975 10974 10973 10972 10971 10971 10970 10970 10969 10968 10966 10964 10963 10961 10960 10958 10956 10955 10953 10952 10950 10949 10947 10946 10944 10943 10942 10940 10939 10938 10937 10936 10935 10933 10931 10929 10928 10926 10926 10925 10924 10923 10922 10921 10920 10919 10918 10917 10916 10914 10913 10911 10910 10909 10908 10907 10907 10906 10905 10904 10904 10904 10904 10903 10903 10903 10904 10905 10906 10906 10907 10907 10908 10908 10909 10911 10912 10913 10913 10913 10912 10913 10913 10913 10913
10976 10975 10974 10973 10973 10972 10972 10971 10970 10968 10967 10965 10964 10962 10960 10959 10957 10955 10954 10952 10951 10949 10947 10946 10945 10943 10942 10940 10939 10937 10936 10935 10934 10933 10931 10929 10928 10926 10924 10924 10923 10922 10921 10920 10919 10917 10916 10915 10914 10913 10912 10911 10909 10908 10907 10906 10905 10904 10904 10903 10902 10902 10901 10901 10901 10900 10901 10902 10902 10902 10902 10903 10904 10905 10906 10907 10908 10909 10909 10909 10909 10910 10911 10911 10911
10977 10976 10975 10975 10974 10974 10973 10972 10971 10969 10968 10966 10964 10962 10961 10959 10958 10956 10954 10953 10951 10949 10947 10946 10945 10943 10942 10940 10938 10937 10935 10934 10933 10931 10930 10929 10927 10925 10924 10923 10921 10920 10919 10918 10917 10915 10914 10913 10912 10911 10910 10909 10908 10907 10905 10904 10904 10903 10902 10901 10901 10900 10899 10899 10898 10898 10898 10898 10898 10898 10898 10899 10899 10901 10901 10902 10903 10904 10904 10904 10905 10907 10907 10907 10907
10978 10977 10977 10976 10976 10975 10974 10972 10971 10970 10968 10967 10965 10963 10962 10960 10959 10957 10955 10952 10951 10949 10948 10946 10945 10943 10941 10940 10938 10936 10934 10933 10932 10930 10929 10928 10926 10924 10923 10921 10920 10918 10917 10916 10914 10913 10912 10911 10909 10909 10908 10907 10906 10905 10904 10903 10902 10901 10900 10900 10899 10898 10897 10897 10896 10896 10895 10895 10895 10895 10895 10895 10895 10896 10896 10897 10897 10898 10899 10899 10900 10902 10902 10902 10903
10979 10978 10978 10977 10977 10975 10974 10973 10972 10970 10969 10967 10966 10964 10962 10960 10958 10956 10954 10952 10951 10949 10948 10946 10944 10943 10941 10939 10937 10936 10934 10932 10931 10929 10928 10926 10925 10923 10921 10919 10918 10916 10915 10913 10912 10911 10910 10908 10907 10906 10905 10905 10904 10903 10902 10901 10900 10899 10898 10897 10897 10896 10895 10894 10893 10893 10892 10892 10892 10892 10892 10891 10891 10891 10891 10892 10892 10893 10893 10894 10895 10896 10897 10898 10898
10980 10979 10979 10978 10977 10976 10975 10973 10972 10970 10969 10967 10966 10964 10962 10960 10958 10956 10954 10953 10951 10949 10947 10946 10944 10942 10940 10938 10936 10934 10933 10931 10930 10928 10926 10925 10923 10921 10920 10918 10916 10914 10912 10911 10909 10908 10907 10906 10904 10903 10902 10902 10901 10900 10899 10898 10897 10896 10895 10895 10894 10893 10892 10891 10891 10890 10890 10889 10889 10889 10889 10888 10888 10887 10887 10888 10888 10888 10888 10889 10890 10890 10891 10892 10893
10980 10980 10979 10978 10977 10976 10975 10973 10972 10970 10969 10967 10966 10964 10962 10960 10958 10956 10955 10953 10951 10949 10947 10945 10943 10942 10940 10938 10935 10933 10932 10930 10928 10927 10925 10923 10921 10920 10918 10916 10914 10912 10910 10908 10907 10906 10905 10903 10901 10900 10899 10898 10898 10897 10896 10895 10894 10893 10892 10891 10890 10890 10889 10888 10888 10887 10887 10886 10886 10885 10885 10885 10884 10884 10883 10883 10883 10884 10884 10884 10885 10885 10886 10887 10887
10981 10980 10979 10978 10977 10976 10975 10974 10972 10971 10969 10967 10966 10964 10963 10961 10959 10957 10955 10953 10951 10950 10948 10945 10943 10942 10940 10938 10935 10933 10931 10929 10927 10925 10924 10922 10920 10918 10917 10915 10912 10909 10907 10906 10904 10903 10903 10901 10899 10897 10896 10894 10893 10893 10892 10891 10890 10889 10888 10888 10887 10886 10885 10885 10884 10884 10883 10883 10882 10881 10881 10881 10880 10880 10879 10879 10879 10879 10879 10879 10880 10880 10881 10881 10882
10981 10980 10979 10978 10977 10976 10975 10974 10972 10970 10969 10968 10966 10964 10963 10961 10959 10957 10955 10953 10951 10950 10948 10946 10944 10942 10940 10938 10935 10933 10930 10928 10926 10924 10922 10920 10918 10916 10915 10912 10910 10907 10904 10903 10901 10901 10900 10899 10897 10895 10893 10891 10890 10889 10888 10887 10886 10885 10884 10883 10882 10882 10881 10880 10880 10879 10878 10878 10877 10877 10876 10876 10875 10875 10874 10874 10874 10874 10874 10874 10874 10874 10875 10876 10876
10981 10980 10979 10978 10977 10976 10975 10974 10972 10971 10969 10968 10966 10964 10963 10961 10959 10956 10954 10953 10951 10950 10948 10946 10943 10941 10939 10937 10934 10932 10929 10926 10924 10922 10920 10918 10916 10914 10912 10910 10908 10904 10902 10901 10899 10898 10897 10896 10894 10892 10890 10888 10886 10885 10884 10883 10881 10880 10879 10878 10877 10876 10876 10875 10874 10874 10873 10873 10872 10871 10871 10870 10870 10869 10869 10869 10868 10868 10868 10867 10867 10868 10868 10869 10870
10980 10980 10979 10978 10977 10976 10975 10973 10972 10971 10969 10967 10965 10964 10962 10960 10958 10956 10954 10952 10951 10949 10947 10945 10943 10940 10938 10935 10933 10930 10927 10924 10922 10920 10918 10916 10914 10912 10910 10908 10905 10902 10900 10899 10897 10896 10895 10893 10891 10889 10887 10885 10883 10881 10880 10878 10877 10875 10874 10873 10872 10871 10870 10869 10869 10868 10867 10867 10866 10866 10865 10865 10864 10864 10863 10863 10862 10862 10861 10861 10861 10861 10861 10861 10862
10980 10979 10978 10977 10976 10975 10974 10973 10972 10970 10968 10966 10964 10963 10961 10959 10957 10955 10953 10951 10949 10947 10946 10944 10941 10938 10936 10933 10931 10929 10926 10923 10920 10917 10915 10913 10912 10909 10907 10905 10902 10900 10898 10896 10895 10893 10891 10889 10887 10886 10884 10881 10879 10877 10876 10874 10872 10870 10869 10867 10866 10865 10864 10863 10863 10862 10861 10861 10860 10859 10859 10859 10858 10858 10857 10857 10856 10856 10855 10854 10854 10853 10853 10854 10854
10979 10978 10977 10976 10975 10974 10972 10971 10970 10969 10967 10965 10963 10961 10959 10957 10955 10953 10951 10949 10946 10945 10942 10940 10938 10936 10933 10931 10929 10927 10924 10922 10919 10916 10913 10910 10908 10906 10904 10902 10900 10897 10896 10894 10892 10890 10888 10886 10884 10882 10880 10878 10876 10873 10871 10869 10867 10866 10864 10862 10861 10860 10859 10858 10857 10856 10855 10854 10854 10853 10853 10853 10852 10852 10851 10850 10850 10849 10848 10847 10846 10846 10846 10846 10847
10977 10976 10976 10975 10973 10972 10971 10970 10969 10967 10965 10963 10961 10959 10958 10956 10953 10951 10949 10946 10944 10942 10939 10937 10935 10933 10931 10929 10927 10925 10923 10921 10918 10915 10912 10909 10906 10903 10901 10899 10897 10895 10894 10892 10889 10887 10884 10882 10880 10878 10876 10874 10871 10869 10866 10864 10862 10860 10858 10856 10854 10853 10853 10852 10851 10850 10849 10848 10848 10847 10847 10847 10846 10845 10844 10843 10842 10841 10840 10840 10839 10839 10839 10839 10839
10975 10975 10974 10973 10972 10971 10970 10969 10967 10965 10963 10962 10960 10958 10956 10954 10952 10949 10947 10944 10941 10939 10937 10935 10933 10931 10929 10927 10925 10923 10921 10919 10916 10913 10910 10907 10904 10901 10899 10896 10894 10892 10891 10889 10887 10884 10881 10878 10876 10873 10871 10868 10866 10864 10861 10859 10856 10854 10852 10850 10849 10847 10846 10846 10845 10844 10843 10842 10842 10841 10840 10839 10839 10838 10837 10836 10835 10834 10833 10833 10833 10833 10833 10832 10833
10973 10972 10971 10971 10970 10969 10968 10967 10965 10964 10962 10960 10958 10957 10955 10952 10949 10947 10944 10942 10939 10936 10934 10932 10930 10928 10926 10924 10922 10921 10918 10916 10913 10911 10908 10905 10902 10899 10896 10893 10891 10889 10886 10884 10882 10880 10877 10874 10871 10869 10866 10864 10861 10859 10856 10854 10851 10849 10847 10846 10844 10843 10841 10839 10838 10837 10836 10835 10834 10834 10833 10833 10832 10831 10830 10829 10828 10828 10827 10827 10827 10827 10827 10827 10827
10971 10970 10969 10968 10967 10967 10966 10965 10963 10962 10960 10958 10956 10954 10952 10949 10947 10944 10942 10939 10936 10934 10932 10930 10927 10925 10923 10921 10919 10917 10915 10912 10910 10907 10904 10901 10898 10896 10893 10890 10887 10885 10882 10879 10876 10873 10871 10869 10866 10863 10861 10858 10856 10853 10851 10849 10846 10844 10843 10841 10840 10838 10835 10834 10832 10831 10830 10829 10828 10827 10827 10826 10826 10825 10824 10823 10822 10822 10821 10821 10821 10820 10820 10820 10820
10968 10967 10966 10965 10965 10964 10963 10962 10960 10959 10957 10956 10954 10952 10949 10946 10944 10942 10939 10936 10934 10932 10930 10927 10925 10923 10920 10918 10915 10913 10911 10908 10906 10903 10900 10897 10894 10892 10889 10886 10883 10880 10877 10874 10871 10868 10866 10863 10860 10857 10855 10852 10850 10847 10845 10843 10840 10838 10837 10835 10834 10832 10830 10828 10826 10825 10824 10823 10822 10822 10821 10820 10819 10819 10818 10817 10816 10815 10815 10814 10814 10814 10813 10813 10813
10965 10964 10964 10963 10962 10961 10959 10958 10957 10956 10954 10953 10951 10948 10946 10943 10941 10939 10937 10934 10932 10929 10927 10925 10923 10920 10918 10915 10912 10909 10907 10905 10902 10899 10897 10894 10891 10888 10884 10881 10879 10876 10873 10869 10866 10863 10860 10858 10855 10851 10849 10846 10844 10841 10839 10837 10834 10832 10830 10828 10827 10825 10824 10822 10820 10819 10818 10817 10816 10816 10815 10814 10813 10812 10811 10810 10809 10808 10808 10807 10807 10806 10806 10806 10806
10962 10961 10961 10960 10959 10958 10956 10955 10953 10952 10951 10949 10947 10945 10942 10940 10938 10937 10934 10932 10929 10926 10924 10922 10920 10917 10915 10912 10910 10906 10903 10900 10898 10895 10893 10890 10887 10884 10881 10877 10874 10871 10868 10865 10861 10857 10854 10852 10849 10846 10843 10840 10838 10835 10833 10830 10828 10825 10823 10821 10820 10818 10817 10815 10814 10813 10812 10811 10810 10809 10808 10807 10806 10805 10805 10804 10803 10801 10800 10800 10799 10799 10798 10798 10798
10959 10958 10957 10957 10956 10955 10953 10952 10950 10949 10948 10946 10944 10941 10939 10936 10935 10933 10931 10929 10926 10923 10921 10918 10916 10913 10911 10908 10906 10903 10899 10896 10893 10890 10888 10885 10882 10880 10877 10874 10871 10868 10864 10861 10857 10852 10848 10846 10843 10840 10837 10835 10832 10830 10827 10824 10821 10818 10816 10814 10812 10811 10809 10808 10807 10806 10804 10803 10802 10801 10800 10799 10798 10798 10797 10796 10795 10794 10793 10792 10791 10790 10790 10789 10789
10956 10955 10954 10953 10952 10951 10949 10948 10946 10945 10944 10942 10940 10937 10934 10932 10931 10929 10928 10926 10923 10920 10918 10915 10911 10908 10906 10903 10901 10898 10895 10892 10889 10886 10883 10880 10877 10874 10872 10869 10866 10863 10859 10856 10853 10849 10844 10840 10837 10834 10831 10829 10827 10824 10822 10819 10815 10812 10809 10807 10805 10804 10802 10801 10800 10799 10797 10796 10794 10793 10792 10791 10791 10790 10789 10788 10787 10785 10784 10783 10782 10782 10781 10780 10780
10953 10952 10951 10950 10949 10947 10945 10943 10942 10940 10939 10938 10936 10933 10931 10929 10927 10925 10924 10922 10919 10916 10914 10911 10907 10904 10901 10899 10896 10894 10891 10889 10885 10882 10878 10875 10871 10867 10865 10862 10859 10856 10853 10850 10847 10844 10840 10835 10832 10829 10825 10823 10821 10819 10816 10813 10809 10805 10803 10801 10799 10797 10795 10794 10792 10791 10790 10789 10787 10786 10784 10783 10782 10781 10780 10779 10777 10776 10775 10774 10773 10772 10772 10771 10770
10950 10949 10948 10946 10945 10943 10941 10939 10937 10936 10935 10934 10932 10930 10927 10925 10923 10922 10920 10918 10915 10913 10910 10908 10903 10900 10897 10895 10892 10890 10887 10885 10882 10878 10874 10870 10867 10863 10859 10856 10852 10849 10846 10843 10840 10837 10834 10830 10826 10823 10820 10818 10816 10814 10810 10806 10802 10799 10796 10794 10792 10790 10788 10787 10785 10784 10783 10782 10780 10779 10777 10776 10774 10772 10771 10769 10768 10766 10765 10764 10764 10763 10762 10761 10760
10946 10945 10944 10943 10942 10940 10938 10935 10934 10932 10931 10930 10928 10926 10923 10921 10919 10918 10916 10913 10911 10908 10906 10904 10900 10897 10894 10891 10889 10886 10883 10881 10878 10874 10870 10866 10863 10859 10855 10851 10848 10844 10841 10837 10834 10830 10828 10825 10822 10819 10816 10814 10811 10809 10805 10800 10795 10792 10789 10787 10785 10784 10781 10779 10777 10775 10775 10774 10772 10771 10770 10769 10767 10765 10762 10760 10758 10756 10755 10754 10754 10753 10752 10750 10749
10941 10941 10940 10939 10937 10936 10934 10932 10930 10929 10928 10927 10925 10922 10919 10917 10915 10914 10912 10909 10907 10905 10903 10900 10897 10893 10890 10888 10885 10882 10879 10876 10873 10870 10866 10862 10859 10855 10852 10848 10844 10840 10836 10832 10829 10825 10823 10820 10818 10816 10813 10810 10807 10804 10800 10794 10789 10786 10783 10780 10778 10776 10773 10770 10768 10767 10766 10764 10763 10761 10760 10758 10757 10755 10753 10751 10748 10746 10745 10744 10743 10741 10740 10738 10737
10937 10936 10935 10934 10933 10931 10929 10928 10926 10925 10924 10924 10922 10920 10917 10913 10911 10910 10908 10905 10904 10902 10900 10896 10893 10889 10885 10883 10880 10876 10873 10871 10868 10864 10861 10857 10853 10850 10847 10843 10839 10835 10831 10827 10823 10820 10817 10814 10812 10810 10808 10805 10802 10800 10795 10790 10786 10782 10779 10775 10773 10771 10767 10763 10760 10760 10759 10757 10754 10752 10750 10748 10747 10745 10743 10740 10737 10735 10734 10733 10731 10729 10728 10726 10725
10932 10931 10930 10929 10928 10926 10925 10923 10922 10920 10920 10920 10919 10917 10915 10912 10909 10906 10904 10901 10900 10898 10896 10892 10888 10885 10881 10878 10875 10872 10869 10866 10862 10859 10855 10851 10847 10844 10840 10837 10833 10829 10825 10821 10817 10814 10811 10807 10805 10803 10800 10798 10795 10793 10790 10787 10783 10780 10777 10773 10769 10767 10763 10758 10754 10754 10754 10752 10748 10745 10742 10740 10739 10736 10733 10729 10726 10724 10723 10722 10719 10717 10716 10715 10713
10927 10926 10925 10924 10923 10921 10920 10919 10917 10916 10916 10915 10914 10914 10913 10910 10907 10903 10900 10897 10895 10894 10892 10888 10884 10880 10877 10873 10870 10867 10864 10860 10857 10853 10849 10845 10841 10838 10834 10830 10827 10823 10820 10816 10812 10808 10804 10800 10798 10795 10791 10789 10788 10786 10784 10782 10779 10776 10773 10769 10764 10761 10757 10753 10749 10748 10748 10746 10742 10739 10735 10734 10732 10728 10723 10719 10715 10714 10713 10710 10707 10705 10703 10703 10702
10922 10921 10920 10919 10918 10917 10916 10914 10913 10912 10911 10910 10910 10909 10909 10907 10904 10900 10896 10892 10890 10889 10887 10884 10880 10876 10872 10869 10865 10862 10859 10855 10852 10848 10844 10840 10836 10832 10829 10825 10821 10817 10814 10810 10806 10802 10797 10793 10790 10788 10784 10782 10781 10780 10777 10775 10772 10769 10766 10762 10757 10752 10748 10743 10740 10740 10740 10738 10734 10730 10726 10725 10723 10719 10714 10710 10706 10704 10703 10699 10696 10694 10692 10691 10689
10916 10915 10915 10914 10913 10912 10911 10909 10908 10907 10906 10905 10905 10904 10903 10902 10899 10895 10891 10887 10884 10882 10881 10879 10876 10872 10868 10864 10860 10856 10853 10850 10847 10843 10839 10835 10831 10827 10823 10820 10816 10812 10809 10805 10801 10796 10791 10787 10784 10782 10779 10776 10775 10774 10771 10768 10766 10763 10759 10755 10749 10744 10739 10733 10728 10728 10730 10730 10726 10721 10715 10712 10712 10709 10704 10700 10697 10694 10692 10688 10685 10683 10681 10679 10677
10910 10910 10909 10908 10907 10906 10906 10904 10902 10901 10900 10899 10899 10899 10897 10896 10894 10890 10886 10883 10879 10877 10875 10873 10870 10867 10863 10859 10855 10851 10848 10844 10841 10838 10834 10830 10827 10823 10819 10815 10811 10807 10804 10800 10795 10790 10786 10782 10779 10777 10774 10771 10769 10767 10765 10761 10759 10756 10751 10746 10740 10735 10730 10726 10720 10716 10717 10719 10718 10712 10705 10700 10700 10698 10693 10688 10685 10683 10680 10677 10674 10672 10669 10667 10665
10903 10904 10903 10902 10901 10901 10900 10898 10897 10896 10894 10893 10893 10892 10891 10890 10889 10885 10881 10878 10874 10871 10869 10867 10864 10861 10857 10853 10849 10846 10843 10839 10835 10832 10829 10825 10822 10818 10814 10811 10807 10803 10799 10794 10789 10785 10781 10778 10774 10772 10770 10766 10763 10761 10758 10755 10751 10748 10743 10737 10732 10727 10722 10717 10713 10707 10705 10707 10706 10702 10695 10689 10688 10687 10681 10676 10673 10670 10667 10664 10662 10660 10657 10655 10652
10897 10897 10897 10896 10896 10896 10894 10892 10891 10890 10888 10887 10886 10886 10884 10884 10884 10881 10876 10873 10870 10867 10864 10861 10858 10855 10851 10847 10844 10841 10838 10835 10831 10827 10824 10820 10817 10813 10810 10806 10802 10798 10793 10788 10784 10780 10777 10773 10770 10767 10765 10762 10758 10755 10753 10749 10743 10738 10733 10728 10722 10718 10714 10709 10704 10699 10696 10696 10695 10692 10686 10678 10676 10675 10670 10663 10661 10657 10653 10651 10649 10647 10645 10642 10640
10891 10891 10890 10890 10890 10889 10887 10886 10885 10883 10881 10880 10880 10879 10879 10879 10879 10876 10871 10868 10866 10862 10859 10856 10853 10849 10847 10843 10839 10836 10834 10831 10828 10823 10820 10816 10812 10809 10805 10801 10797 10792 10787 10783 10779 10776 10772 10768 10764 10760 10758 10756 10752 10748 10745 10740 10735 10730 10724 10719 10713 10709 10705 10699 10694 10690 10687 10686 10685 10683 10678 10670 10665 10664 10658 10652 10648 10643 10639 10637 10636 10634 10632 10629 10626
10885 10884 10884 10883 10883 10882 10881 10880 10879 10876 10875 10874 10873 10873 10873 10873 10873 10872 10867 10864 10862 10859 10855 10852 10848 10845 10843 10839 10836 10832 10829 10827 10824 10820 10815 10811 10807 10804 10801 10797 10791 10786 10782 10778 10775 10771 10767 10763 10758 10754 10750 10747 10743 10738 10734 10730 10726 10721 10715 10709 10703 10699 10695 10689 10683 10680 10677 10675 10674 10673 10670 10662 10655 10652 10647 10641 10637 10630 10624 10623 10622 10620 10618 10616 10613
10879 10879 10877 10876 10875 10874 10874 10873 10872 10870 10869 10868 10867 10867 10867 10867 10867 10865 10863 10861 10859 10856 10852 10849 10849 10849 10844 10838 10834 10831 10826 10822 10819 10815 10810 10806 10802 10799 10796 10792 10787 10782 10778 10774 10771 10767 10762 10757 10752 10747 10744 10740 10736 10731 10726 10721 10716 10711 10705 10699 10693 10688 10683 10678 10673 10668 10663 10661 10659 10659 10657 10651 10644 10641 10636 10630 10626 10618 10610 10608 10608 10606 10604 10602 10600
10873 10873 10871 10870 10869 10868 10867 10867 10865 10864 10862 10861 10860 10860 10860 10861 10861 10859 10857 10856 10857 10856 10850 10848 10852 10855 10849 10840 10834 10829 10823 10817 10813 10809 10805 10801 10797 10794 10791 10788 10783 10778 10774 10771 10768 10764 10760 10757 10754 10749 10742 10737 10731 10725 10719 10713 10707 10700 10694 10688 10681 10676 10672 10667 10662 10656 10650 10645 10643 10642 10642 10638 10632 10629 10626 10621 10615 10606 10598 10593 10591 10589 10589 10588 10586
10867 10866 10865 10864 10863 10861 10860 10860 10859 10858 10857 10855 10854 10853 10854 10854 10854 10853 10851 10851 10856 10859 10852 10847 10848 10847 10842 10838 10832 10824 10818 10812 10807 10803 10799 10796 10792 10789 10786 10783 10779 10775 10771 10767 10764 10761 10758 10755 10752 10746 10738 10731 10725 10718 10711 10704 10698 10690 10684 10677 10671 10665 10660 10655 10651 10646 10640 10633 10629 10628 10629 10626 10620 10616 10614 10611 10605 10594 10585 10582 10577 10572 10571 10573 10572
10858 10858 10858 10858 10857 10854 10853 10852 10852 10852 10851 10850 10847 10846 10847 10848 10846 10846 10844 10844 10850 10855 10850 10845 10842 10838 10834 10831 10824 10817 10811 10806 10801 10797 10794 10790 10787 10783 10780 10777 10774 10771 10767 10763 10760 10756 10751 10745 10740 10735 10729 10723 10716 10708 10700 10694 10687 10681 10674 10667 10661 10655 10650 10644 10639 10636 10631 10624 10618 10617 10617 10614 10607 10602 10598 10598 10595 10584 10573 10568 10565 10559 10555 10556 10558